DL1NER Weather Reports


time (UTC)temp
C
wind
direction
speed
KPH
gust
KPH
rain 1hr
cm
rain 24hr
cm
rain mn
cm
humidity
%
barometer
mb
20260506103013 18 264 3.2 9.7 0.00 0.00 0.00 66 1006.1
20260506102013 18 206 1.6 8.0 0.00 0.00 0.00 63 1006.1
20260506101013 18 184 3.2 11.3 0.00 0.00 0.00 63 1006.2
20260506100013 18 188 1.6 6.4 0.00 0.00 0.00 67 1006.2
20260506095013 18 140 4.8 11.3 0.00 0.00 0.00 68 1006.2
20260506094013 17 249 6.4 11.3 0.00 0.00 0.00 67 1006.2
20260506093013 16 194 4.8 12.9 0.00 0.00 0.00 68 1006.2
20260506092013 16 227 4.8 11.3 0.00 0.00 0.00 73 1006.2
20260506091013 16 249 4.8 12.9 0.00 0.00 0.00 70 1006.3
20260506090013 16 228 4.8 16.1 0.00 0.00 0.00 69 1006.3
20260506085013 17 221 4.8 11.3 0.00 0.00 0.00 72 1006.4
20260506084013 17 185 4.8 11.3 0.00 0.00 0.00 72 1006.4
20260506083013 17 231 3.2 12.9 0.00 0.00 0.00 69 1006.3
20260506082014 17 127 4.8 16.1 0.00 0.00 0.00 69 1006.4
20260506081013 16 163 3.2 12.9 0.00 0.00 0.00 75 1006.4
20260506073013 14 186 3.2 11.3 0.00 0.00 0.00 81 1006.3
20260506072013 14 190 1.6 8.0 0.00 0.00 0.00 81 1006.2
20260506071012 14 183 3.2 9.7 0.00 0.00 0.00 81 1006.2
20260506062012 11 120 1.6 9.7 0.00 0.00 0.00 91 1006.3
20260506061012 11 111 0.0 6.4 0.00 0.00 0.00 92 1006.2
20260506051012 10 155 4.8 9.7 0.00 0.00 0.00 92 1006.7
20260506045012 9 164 4.8 8.0 0.00 0.00 0.00 92 1006.9
20260506044012 9 165 3.2 6.4 0.00 0.00 0.00 92 1006.8
20260506043012 9 165 3.2 6.4 0.00 0.00 0.00 91 1006.7
20260506042012 9 165 1.6 6.4 0.00 0.00 0.00 91 1006.6
20260506041012 9 165 4.8 8.0 0.00 0.00 0.00 91 1006.6
20260506040012 9 167 1.6 6.4 0.00 0.00 0.00 91 1006.6
20260506035012 9 168 3.2 8.0 0.00 0.00 0.00 91 1006.5
20260506034012 9 171 0.0 6.4 0.00 0.00 0.00 91 1006.5
20260506033012 9 174 0.0 3.2 0.00 0.00 0.00 91 1006.3
20260506032011 9 174 0.0 0.0 0.00 0.00 0.00 91 1006.4
20260506031012 10 174 0.0 0.0 0.00 0.00 0.00 90 1006.4
20260506030011 10 174 0.0 1.6 0.00 0.00 0.00 90 1006.5
20260506025012 10 174 0.0 3.2 0.00 0.00 0.00 90 1006.5
20260506024011 10 174 0.0 8.0 0.00 0.00 0.00 90 1006.6
20260506023011 10 174 0.0 4.8 0.00 0.00 0.00 90 1006.6
20260506022011 10 174 0.0 4.8 0.00 0.00 0.00 90 1006.7
20260506021011 11 174 1.6 4.8 0.00 0.00 0.00 90 1006.6
20260506020011 11 204 0.0 0.0 0.00 0.00 0.00 90 1006.6
20260506015011 11 204 0.0 1.6 0.00 0.00 0.00 91 1006.4
20260506014011 11 204 1.6 3.2 0.00 0.00 0.00 91 1006.4
20260506013011 11 204 0.0 4.8 0.00 0.00 0.00 91 1006.5
20260506012011 11 204 1.6 8.0 0.00 0.00 0.00 91 1006.7
20260506011011 11 203 1.6 6.4 0.00 0.00 0.00 91 1006.7
20260506010011 11 201 0.0 6.4 0.00 0.00 0.00 90 1006.7
20260506005011 11 202 1.6 6.4 0.00 0.00 0.00 90 1006.8
20260506004011 11 211 1.6 6.4 0.00 0.00 0.00 90 1006.7
20260506003011 11 207 0.0 3.2 0.00 0.00 0.00 90 1006.7
20260506002011 11 207 1.6 6.4 0.00 0.00 0.00 90 1006.8
20260506001011 11 207 3.2 8.0 0.00 0.00 0.00 90 1006.9
20260506000011 11 196 4.8 9.7 0.00 0.00 0.00 90 1007.0
20260505235011 11 200 1.6 6.4 0.00 0.00 0.00 90 1007.1
20260505234011 11 195 3.2 9.7 0.00 0.00 0.00 90 1007.2
20260505233011 11 174 3.2 11.3 0.00 0.00 0.00 90 1007.2
20260505232010 11 210 3.2 6.4 0.00 0.00 0.00 90 1007.2
20260505231011 11 211 3.2 8.0 0.00 0.00 0.00 90 1007.3
20260505230010 11 205 3.2 8.0 0.00 0.00 0.00 91 1007.3
20260505225011 11 192 3.2 8.0 0.00 0.00 0.00 90 1007.3
20260505224010 11 191 3.2 8.0 0.00 0.00 0.00 90 1007.3
20260505223010 11 205 1.6 6.4 0.00 0.00 0.00 90 1007.3
20260505222011 11 206 3.2 8.0 0.00 0.00 0.00 91 1007.4
20260505221011 11 207 1.6 6.4 0.00 0.00 0.00 91 1007.3
20260505220010 11 201 3.2 9.7 0.00 0.00 0.00 91 1007.3
20260505215010 11 207 0.0 3.2 0.00 0.20 0.20 90 1007.3
20260505214011 11 207 1.6 3.2 0.00 0.20 0.20 90 1007.3
20260505213011 11 207 1.6 6.4 0.00 0.20 0.20 90 1007.3
20260505212009 11 238 0.0 4.8 0.00 0.20 0.20 89 1007.4
20260505211010 11 238 0.0 4.8 0.00 0.20 0.20 89 1007.4
20260505210011 11 238 0.0 4.8 0.00 0.20 0.20 89 1007.3
20260505205011 12 238 0.0 3.2 0.00 0.20 0.20 89 1007.1
20260505204010 12 239 0.0 1.6 0.00 0.20 0.20 86 1006.7
20260505203010 12 239 0.0 4.8 0.00 0.20 0.20 86 1006.8
20260505202010 12 239 0.0 4.8 0.00 0.20 0.20 86 1006.8
20260505201010 12 239 1.6 6.4 0.00 0.20 0.20 85 1006.8
20260505200010 12 239 1.6 6.4 0.00 0.20 0.20 85 1006.8
20260505195011 12 220 1.6 4.8 0.00 0.20 0.20 86 1006.7
20260505194014 12 219 3.2 8.0 0.00 0.20 0.20 86 1006.9
20260505193014 12 237 3.2 8.0 0.00 0.20 0.20 86 1006.8
20260505192014 13 219 1.6 8.0 0.00 0.20 0.20 86 1006.8
20260505191014 13 230 3.2 12.9 0.00 0.20 0.20 86 1006.8
20260505190014 13 270 4.8 11.3 0.00 0.20 0.20 84 1006.5
20260505185014 13 247 6.4 14.5 0.00 0.20 0.20 84 1006.4
20260505184014 13 244 6.4 14.5 0.00 0.20 0.20 84 1006.3
20260505183014 13 238 6.4 14.5 0.00 0.20 0.20 84 1006.2
20260505182013 13 265 6.4 16.1 0.00 0.20 0.20 84 1006.0
20260505181013 13 260 8.0 16.1 0.00 0.20 0.20 84 1006.1
20260505180013 13 248 9.7 22.5 0.00 0.20 0.20 85 1005.9
20260505175013 13 234 6.4 12.9 0.00 0.20 0.20 85 1006.2
20260505174013 13 231 4.8 16.1 0.03 0.20 0.20 85 1006.1
20260505173014 13 238 3.2 9.7 0.05 0.20 0.20 85 1006.0
20260505172013 13 251 3.2 11.3 0.05 0.20 0.20 84 1005.9
20260505171013 13 266 6.4 17.7 0.10 0.20 0.20 83 1005.7
20260505170013 13 268 4.8 19.3 0.15 0.20 0.20 83 1005.7
20260505165013 13 227 3.2 8.0 0.15 0.20 0.20 81 1005.8
20260505164013 13 225 4.8 14.5 0.15 0.18 0.18 79 1006.0
20260505163013 13 258 8.0 20.9 0.15 0.15 0.15 77 1006.2
20260505162012 14 221 8.0 24.1 0.15 0.15 0.15 76 1006.3
20260505161013 14 239 8.0 20.9 0.10 0.10 0.10 74 1006.3
20260505153012 16 210 16.1 37.0 0.03 0.03 0.03 65 1005.9
20260505152012 19 200 14.5 40.2 0.00 0.00 0.00 59 1005.6
20260505151013 20 211 3.2 6.4 0.00 0.00 0.00 51 1004.7
20260505125012 24 145 3.2 6.4 0.00 0.00 0.00 40 1005.2
20260505124012 23 223 4.8 11.3 0.00 0.00 0.00 40 1005.4
20260505123012 23 278 4.8 12.9 0.00 0.00 0.00 46 1005.4
20260505122013 25 244 3.2 11.3 0.00 0.00 0.00 38 1005.6
20260505121012 24 215 3.2 8.0 0.00 0.00 0.00 39 1005.6
20260505120012 24 252 4.8 14.5 0.00 0.00 0.00 41 1005.7
20260505115012 24 294 3.2 12.9 0.00 0.00 0.00 44 1005.9
20260505114011 24 327 6.4 16.1 0.00 0.00 0.00 44 1005.9
20260505113012 23 242 4.8 12.9 0.00 0.00 0.00 45 1006.0
20260505112012 23 288 3.2 14.5 0.00 0.00 0.00 45 1006.0
20260505111012 23 92 3.2 9.7 0.00 0.00 0.00 45 1006.1